OE5RPP Weather Reports


time (UTC)temp
C
wind
direction
speed
KPH
gust
KPH
rain 1hr
cm
rain 24hr
cm
rain mn
cm
humidity
%
barometer
mb
20260505140106 26 90 4.8 4.8 0.00 0.00 0.00 17 1007.9
20260505130106 28 0 8.0 4.8 0.00 0.00 0.00 15 1008.9
20260505124105 27 45 4.8 6.4 0.00 0.00 0.00 15 1008.9
20260505123106 27 45 8.0 8.0 0.00 0.00 0.00 15 1008.9
20260505122106 26 90 4.8 4.8 0.00 0.00 0.00 17 1008.9
20260505121105 26 22 8.0 8.0 0.00 0.00 0.00 17 1008.9
20260505120106 26 22 4.8 4.8 0.00 0.00 0.00 17 1008.9
20260505115104 25 315 4.8 9.7 0.00 0.00 0.00 17 1008.9
20260505114104 25 247 8.0 9.7 0.00 0.00 0.00 17 1008.9
20260505113105 26 22 4.8 6.4 0.00 0.00 0.00 17 1009.9
20260505112105 25 337 8.0 11.3 0.00 0.00 0.00 17 1009.9
20260505111104 25 157 4.8 0.0 0.00 0.00 0.00 17 1009.9
20260505110105 24 247 6.4 4.8 0.00 0.00 0.00 18 1009.9
20260505101024 24 0 4.8 4.8 0.00 0.00 0.00 18 1010.9
20260505100025 23 22 8.0 8.0 0.00 0.00 0.00 18 1010.9
20260505095025 23 157 8.0 8.0 0.00 0.00 0.00 18 1010.9
20260505094024 23 22 4.8 4.8 0.00 0.00 0.00 18 1010.9
20260505093024 23 0 4.8 6.4 0.00 0.00 0.00 18 1010.9
20260505092024 22 337 4.8 6.4 0.00 0.00 0.00 18 1010.9
20260505091025 22 135 3.2 9.7 0.00 0.00 0.00 18 1010.9
20260505090025 21 315 6.4 4.8 0.00 0.00 0.00 18 1010.9
20260505085025 21 135 1.6 6.4 0.00 0.00 0.00 18 1010.9
20260505084025 21 337 4.8 4.8 0.00 0.00 0.00 20 1010.9
20260505083024 21 22 4.8 4.8 0.00 0.00 0.00 20 1010.9
20260505082024 20 0 6.4 6.4 0.00 0.00 0.00 20 1010.9
20260505081024 20 202 6.4 4.8 0.00 0.00 0.00 23 1010.9
20260505080024 20 90 4.8 4.8 0.00 0.00 0.00 26 1011.9
20260505075024 19 112 4.8 4.8 0.00 0.00 0.00 30 1011.9
20260505074025 18 22 0.0 0.0 0.00 0.00 0.00 30 1011.9
20260505073025 18 0 4.8 4.8 0.00 0.00 0.00 31 1011.9
20260505072025 18 157 4.8 0.0 0.00 0.00 0.00 32 1011.9
20260505071024 17 0 4.8 4.8 0.00 0.00 0.00 34 1011.9
20260505070025 17 0 0.0 0.0 0.00 0.00 0.00 34 1011.9
20260505065025 16 0 0.0 0.0 0.00 0.00 0.00 35 1011.9
20260505064025 16 0 8.0 8.0 0.00 0.00 0.00 37 1011.9
20260505063024 16 202 0.0 0.0 0.00 0.00 0.00 40 1011.9
20260505062024 15 202 1.6 4.8 0.00 0.00 0.00 43 1011.9
20260505061025 15 202 0.0 0.0 0.00 0.00 0.00 46 1011.9
20260505060025 14 180 1.6 0.0 0.00 0.00 0.00 49 1011.9
20260505055025 13 180 3.2 1.6 0.00 0.00 0.00 50 1011.9
20260505054024 13 157 4.8 4.8 0.00 0.00 0.00 51 1011.9
20260505053025 12 180 3.2 6.4 0.00 0.00 0.00 51 1011.9
20260505052025 11 180 1.6 0.0 0.00 0.00 0.00 51 1011.9
20260505051024 11 180 0.0 0.0 0.00 0.00 0.00 50 1011.9
20260505041025 10 180 8.0 8.0 0.00 0.00 0.00 49 1011.9
20260505040025 9 180 0.0 0.0 0.00 0.00 0.00 49 1011.9
20260505035025 9 180 6.4 4.8 0.00 0.00 0.00 49 1011.9
20260505034024 9 270 0.0 0.0 0.00 0.00 0.00 48 1011.9
20260505033025 10 270 0.0 0.0 0.00 0.00 0.00 48 1011.9
20260505032025 10 270 4.8 4.8 0.00 0.00 0.00 48 1011.9
20260505031024 10 0 4.8 4.8 0.00 0.00 0.00 47 1012.9
20260505030024 11 202 4.8 6.4 0.00 0.00 0.00 47 1012.9
20260505025024 11 202 0.0 0.0 0.00 0.00 0.00 48 1012.9
20260505024025 11 202 3.2 0.0 0.00 0.00 0.00 48 1012.9
20260505023024 11 337 0.0 0.0 0.00 0.00 0.00 47 1012.9
20260505022024 11 337 3.2 0.0 0.00 0.00 0.00 47 1012.9
20260505021024 11 337 0.0 0.0 0.00 0.00 0.00 47 1012.9
20260505020025 11 337 0.0 0.0 0.00 0.00 0.00 46 1012.9
20260505015025 11 337 4.8 6.4 0.00 0.00 0.00 46 1012.9
20260505014024 12 292 4.8 4.8 0.00 0.00 0.00 46 1012.9
20260505013024 12 315 0.0 0.0 0.00 0.00 0.00 46 1012.9
20260505012024 12 315 0.0 0.0 0.00 0.00 0.00 46 1012.9
20260505011025 12 315 0.0 0.0 0.00 0.00 0.00 46 1012.9
20260505010024 12 315 6.4 4.8 0.00 0.00 0.00 46 1012.9
20260505005024 12 157 4.8 4.8 0.00 0.00 0.00 46 1012.9
20260505004025 12 202 6.4 6.4 0.00 0.00 0.00 46 1012.9
20260505003024 12 22 0.0 0.0 0.00 0.00 0.00 46 1013.9
20260505002024 12 22 4.8 4.8 0.00 0.00 0.00 45 1013.9
20260505001024 12 157 6.4 6.4 0.00 0.00 0.00 45 1013.9
20260505000025 12 157 1.6 0.0 0.00 0.00 0.00 45 1013.9
20260504235025 12 157 1.6 0.0 0.00 0.00 0.00 46 1013.9
20260504234024 12 90 4.8 4.8 0.00 0.00 0.00 45 1013.9
20260504233025 12 315 3.2 6.4 0.00 0.00 0.00 41 1013.9
20260504232025 12 315 0.0 0.0 0.00 0.00 0.00 40 1013.9
20260504231024 12 315 0.0 0.0 0.00 0.00 0.00 40 1013.9
20260504230024 12 315 0.0 0.0 0.00 0.00 0.00 40 1013.9
20260504225024 12 315 3.2 4.8 0.00 0.00 0.00 37 1013.9
20260504224025 12 315 0.0 0.0 0.00 0.00 0.00 36 1013.9
20260504223024 13 315 1.6 0.0 0.00 0.00 0.00 37 1013.9
20260504222024 13 315 6.4 6.4 0.00 0.00 0.00 35 1013.9
20260504221024 13 315 0.0 0.0 0.00 0.00 0.00 35 1013.9
20260504220025 13 315 0.0 0.0 0.00 0.00 0.00 35 1013.9
20260504215024 13 315 0.0 0.0 0.00 0.00 0.00 34 1013.9
20260504214024 13 315 0.0 0.0 0.00 0.00 0.00 34 1013.9
20260504213025 13 315 0.0 0.0 0.00 0.00 0.00 34 1013.9
20260504212025 13 315 0.0 0.0 0.00 0.00 0.00 32 1013.9
20260504211025 14 315 0.0 0.0 0.00 0.00 0.00 32 1013.9
20260504210024 14 315 0.0 0.0 0.00 0.00 0.00 30 1013.9
20260504205024 14 315 3.2 4.8 0.00 0.00 0.00 30 1013.9
20260504204023 15 315 3.2 4.8 0.00 0.00 0.00 26 1013.9
20260504203024 15 315 4.8 4.8 0.00 0.00 0.00 22 1013.9
20260504202024 16 270 1.6 0.0 0.00 0.00 0.00 22 1013.9
20260504201024 16 270 4.8 4.8 0.00 0.00 0.00 22 1013.9
20260504200025 17 270 0.0 0.0 0.00 0.00 0.00 21 1013.9
20260504195025 17 157 4.8 4.8 0.00 0.00 0.00 21 1013.9
20260504194024 17 67 4.8 4.8 0.00 0.00 0.00 21 1013.9
20260504193025 17 67 0.0 0.0 0.00 0.00 0.00 21 1013.9
20260504192024 18 67 0.0 0.0 0.00 0.00 0.00 21 1013.9
20260504191024 19 315 4.8 4.8 0.00 0.00 0.00 21 1013.9
20260504190025 19 270 8.0 6.4 0.00 0.00 0.00 21 1013.9
20260504185025 18 292 8.0 6.4 0.00 0.00 0.00 21 1013.9
20260504184025 18 0 0.0 0.0 0.00 0.00 0.00 21 1013.9
20260504183024 19 0 0.0 0.0 0.00 0.00 0.00 21 1012.9
20260504182024 18 0 4.8 4.8 0.00 0.00 0.00 21 1012.9
20260504181025 19 22 0.0 0.0 0.00 0.00 0.00 21 1012.9
20260504180025 20 22 1.6 0.0 0.00 0.00 0.00 21 1012.9
20260504175025 20 22 0.0 0.0 0.00 0.00 0.00 20 1012.9
20260504174024 21 22 1.6 4.8 0.00 0.00 0.00 20 1012.9
20260504173025 21 22 0.0 0.0 0.00 0.00 0.00 20 1012.9
20260504172025 22 22 0.0 0.0 0.00 0.00 0.00 18 1012.9
20260504171024 22 22 1.6 0.0 0.00 0.00 0.00 18 1012.9
20260504151024 27 90 4.8 6.4 0.00 0.00 0.00 15 1012.9